パンスターズ彗星

C/2019 G2 ( PanSTARRS )

English version
Home page
Updated on May 13, 2024

---------------------------------------------------------------------

・ プロフィール

発見日 2019年4月2日
発見光度 21.3等
発見者 Pan-STARRS 1 telescope (Haleakala)

・ 写真集

・ 軌道要素

Epoch 2019 Dec. 23.0 TT = JDT 2458840.5
T 2019 Dec. 10.06199 TT                                 Rudenko
q   2.2913546            (2000.0)            P               Q
z  +0.0013984      Peri.   82.65279     -0.55012593     +0.81812870
 +/-0.0000018      Node   208.14429     +0.55476101     +0.50788434
e   0.9967958      Incl.  159.21161     +0.62418082     +0.26966446
H   16.5
From 93 observations 2019 Feb. 27-2020 Sept. 13, mean residual 0".5.

・ 光度変化

        H = 16.0  G = 0.15

---------------------------------------------------------------------

軌道要素はM.P.E.C. 2020-S188に掲載されたものです。
光度グラフはComet for Windowsで作成したものです。

---------------------------------------------------------------------

Copyright(C) Seiichi Yoshida (comet@aerith.net). All rights reserved.